KD8LPB Weather Reports


Display with metric or nautical units.
time (UTC)temp
F
wind
direction
speed
MPH
gust
MPH
rain 1hr
in
rain 24hr
in
rain mn
in
humidity
%
barometer
mb
20260502221542 42 306 0.0 2.0 0.00 0.00 0.00 70 1013.0
20260502220052 41 225 0.0 2.0 0.00 0.00 0.00 75 1013.1
20260502214536 42 300 1.0 3.0 0.00 0.00 0.00 75 1013.3
20260502213043 42 316 1.0 4.0 0.00 0.00 0.00 74 1013.4
20260502211536 43 315 1.0 2.0 0.00 0.00 0.00 72 1013.6
20260502210041 43 262 1.0 4.0 0.00 0.00 0.00 74 1013.7
20260502204538 42 283 1.0 3.0 0.00 0.00 0.00 77 1013.9
20260502203047 43 230 1.0 5.0 0.00 0.00 0.00 76 1014.1
20260502201540 42 282 1.0 3.0 0.00 0.00 0.00 79 1014.3
20260502200041 40 291 2.0 3.0 0.00 0.00 0.00 83 1014.4
20260502194548 41 316 1.0 4.0 0.00 0.00 0.00 83 1014.6
20260502193039 41 307 1.0 3.0 0.00 0.00 0.00 82 1014.8
20260502191542 40 311 1.0 4.0 0.00 0.00 0.00 84 1015.0
20260502190037 40 289 1.0 4.0 0.00 0.00 0.00 83 1015.0
20260502184540 40 311 1.0 3.0 0.00 0.00 0.00 81 1015.1
20260502183048 39 310 2.0 4.0 0.00 0.00 0.00 78 1015.1
20260502181538 39 305 2.0 4.0 0.00 0.00 0.00 76 1015.2
20260502163100 39 309 2.0 3.0 0.00 0.00 0.00 80 1015.7
20260502161542 38 320 2.0 3.0 0.00 0.00 0.00 81 1015.7
20260502151539 38 311 1.0 3.0 0.00 0.00 0.00 85 1015.7
20260502123037 36 0 0.0 4.0 0.00 0.00 0.00 90 1016.1
20260502121542 35 0 0.0 1.0 0.00 0.00 0.00 90 1016.0
20260502114546 35 324 1.0 2.0 0.00 0.00 0.00 89 1015.9
20260502113039 35 0 0.0 2.0 0.00 0.00 0.00 90 1015.8
20260502111535 35 304 1.0 3.0 0.00 0.00 0.00 90 1015.8
20260502110036 34 296 0.0 2.0 0.00 0.00 0.00 91 1015.6
20260502104541 32 0 0.0 0.0 0.00 0.00 0.00 94 1015.7
20260502103039 31 0 0.0 0.0 0.00 0.00 0.00 94 1015.7
20260502101537 31 329 0.0 2.0 0.00 0.00 0.00 96 1015.7
20260502070049 33 236 0.0 4.0 0.00 0.00 0.00 92 1015.4
20260502064545 34 238 0.0 3.0 0.00 0.00 0.00 91 1015.4
20260502063040 34 284 1.0 3.0 0.00 0.00 0.00 92 1015.4
20260502061535 33 304 0.0 3.0 0.00 0.00 0.00 91 1015.5
20260502060033 34 224 0.0 7.0 0.00 0.00 0.00 91 1015.6
20260502054536 34 259 1.0 2.0 0.00 0.00 0.00 90 1015.5
20260502053038 34 253 1.0 4.0 0.00 0.00 0.00 90 1015.6
20260502051537 34 212 1.0 5.0 0.00 0.00 0.00 91 1015.7
20260502050036 34 0 0.0 5.0 0.00 0.00 0.00 90 1015.8
20260502044539 34 217 1.0 7.0 0.00 0.00 0.00 87 1015.8
20260502043038 34 345 1.0 3.0 0.00 0.00 0.00 89 1015.9
20260502041540 33 248 1.0 4.0 0.00 0.00 0.00 92 1016.0
20260502040038 33 240 0.0 2.0 0.00 0.00 0.00 92 1016.0
20260502034539 33 217 0.0 8.0 0.00 0.00 0.00 92 1016.1
20260502033037 33 0 1.0 5.0 0.00 0.00 0.00 91 1016.2
20260502031534 33 0 0.0 2.0 0.00 0.00 0.00 92 1016.1
20260502030040 33 242 1.0 3.0 0.00 0.00 0.00 91 1016.2
20260502024541 33 157 0.0 3.0 0.00 0.00 0.00 92 1016.3
20260502023035 33 200 0.0 3.0 0.00 0.00 0.00 90 1016.4
20260502021537 33 211 0.0 3.0 0.00 0.00 0.00 91 1016.4
20260502020032 34 261 0.0 3.0 0.00 0.00 0.00 90 1016.5
20260502014551 34 286 0.0 3.0 0.00 0.00 0.00 90 1016.4
20260502013038 34 288 1.0 4.0 0.00 0.00 0.00 89 1016.3
20260502011544 34 293 1.0 4.0 0.00 0.00 0.00 88 1016.3
20260502010040 35 281 1.0 4.0 0.00 0.00 0.00 87 1016.1
20260502004539 35 293 1.0 3.0 0.00 0.00 0.00 86 1016.1
20260502003037 35 252 0.0 3.0 0.00 0.00 0.00 85 1016.2
20260502001536 36 300 0.0 5.0 0.00 0.00 0.00 85 1016.0
20260502000047 36 304 1.0 6.0 0.00 0.00 0.00 85 1016.0
20260501234541 37 308 3.0 5.0 0.00 0.00 0.00 83 1016.0
20260501233038 37 333 4.0 6.0 0.00 0.00 0.00 82 1015.9
20260501231542 37 295 4.0 8.0 0.00 0.00 0.00 82 1015.8
20260501230037 37 307 4.0 7.0 0.00 0.00 0.00 82 1015.7
20260501224536 37 314 4.0 7.0 0.00 0.00 0.00 82 1015.7
20260501223039 37 315 4.0 6.0 0.00 0.00 0.00 79 1015.7